PAL126 RPLL-KJFK

Flight info

Callsign PAL126
Flight time N/A
Altitude 33000
Route CAB2R CAB N884 ALBAX Y533 AZAMA Y57 PUTER/N0489F340 A590 PLADO/N0489F350 A590 HAMND DCT TED Q811 GKN/N0482F370 NCA14 GAHAM DCT 61N130W 60N120W DCT HOGAR DCT 58N110W 55N100W DCT KIROD DCT FERNO/N0495F390 DCT 50N090W DCT MUSIT DCT YVV DCT JHW J70 LVZ DCT PUCKY PUCKY1
Aircraft A35K/H-SDE2E3GHIJ3J4J5LM1ORWXY/LB1D1

Departure

Time 2026-05-04 14:21
Airport Ninoy Aquino International Airport (RPLL)

Arrival

Time N/A
Airport John F. Kennedy International Airport (KJFK)
Time Latitude Longitude Altitude Speed Heading
2026-05-04 13:17 14.50503 121.00720 75 ft 0 kts 277°
2026-05-04 13:18 14.50572 121.00708 75 ft 0 kts 243°
2026-05-04 14:05 14.50587 121.00739 62 ft 4 kts 237°
2026-05-04 14:05 14.50604 121.00753 67 ft 4 kts 172°
2026-05-04 14:05 14.50626 121.00741 64 ft 4 kts 131°
2026-05-04 14:06 14.50638 121.00723 64 ft 2 kts 112°
2026-05-04 14:06 14.50631 121.00741 64 ft 3 kts 112°
2026-05-04 14:06 14.50615 121.00763 64 ft 4 kts 139°
2026-05-04 14:06 14.50596 121.00774 64 ft 4 kts 150°
2026-05-04 14:07 14.50573 121.00788 64 ft 4 kts 150°
2026-05-04 14:07 14.50567 121.00791 64 ft 0 kts 150°
2026-05-04 14:12 14.50564 121.00793 74 ft 1 kts 150°
2026-05-04 14:12 14.50497 121.00824 71 ft 8 kts 170°
2026-05-04 14:13 14.50432 121.00817 71 ft 11 kts 192°
2026-05-04 14:13 14.50365 121.00769 63 ft 12 kts 233°
2026-05-04 14:13 14.50321 121.00692 63 ft 13 kts 240°
2026-05-04 14:13 14.50276 121.00612 63 ft 14 kts 238°
2026-05-04 14:14 14.50224 121.00522 64 ft 16 kts 239°
2026-05-04 14:14 14.50107 121.00310 64 ft 17 kts 240°
2026-05-04 14:14 14.50048 121.00203 65 ft 17 kts 240°
2026-05-04 14:15 14.49937 121.00006 64 ft 12 kts 240°
2026-05-04 14:15 14.49897 120.99968 67 ft 0 kts 191°
2026-05-04 14:17 14.49887 120.99967 67 ft 0 kts 184°
2026-05-04 14:18 14.49846 120.99983 64 ft 7 kts 153°
2026-05-04 14:19 14.49831 121.00088 72 ft 8 kts 60°
2026-05-04 14:19 14.49833 121.00092 71 ft 0 kts 60°
2026-05-04 14:20 14.49883 121.00183 63 ft 45 kts 60°
2026-05-04 14:21 14.50699 121.01656 68 ft 181 kts 62°
2026-05-04 14:21 14.51329 121.02793 880 ft 174 kts 61°
2026-05-04 14:21 14.51955 121.03840 1668 ft 170 kts 58°
2026-05-04 14:21 14.52642 121.04910 1823 ft 184 kts 56°
2026-05-04 14:22 14.53292 121.06056 2223 ft 186 kts 63°
2026-05-04 14:22 14.53890 121.07234 2619 ft 185 kts 62°
2026-05-04 14:22 14.54490 121.08391 2999 ft 185 kts 62°
2026-05-04 14:22 14.55122 121.09576 3241 ft 194 kts 62°
2026-05-04 14:23 14.56576 121.12167 3526 ft 223 kts 55°
2026-05-04 14:23 14.57772 121.13227 3690 ft 238 kts 25°
2026-05-04 14:23 14.59442 121.13533 3865 ft 256 kts
2026-05-04 14:24 14.61275 121.13525 4170 ft 265 kts
2026-05-04 14:24 14.63131 121.13503 4640 ft 268 kts
2026-05-04 14:24 14.65004 121.13494 5099 ft 270 kts
2026-05-04 14:24 14.66888 121.13494 5600 ft 271 kts
2026-05-04 14:25 14.68779 121.13499 6080 ft 273 kts
2026-05-04 14:25 14.72508 121.12687 7075 ft 277 kts 343°
2026-05-04 14:25 14.74331 121.12021 7524 ft 280 kts 343°
2026-05-04 14:26 14.76183 121.11343 7989 ft 283 kts 343°
2026-05-04 14:26 14.78051 121.10665 8456 ft 286 kts 343°
2026-05-04 14:26 14.79945 121.09982 8934 ft 289 kts 343°
2026-05-04 14:26 14.81854 121.09293 9408 ft 293 kts 344°
2026-05-04 14:27 14.83782 121.08600 9885 ft 295 kts 344°
2026-05-04 14:27 14.85739 121.07897 10229 ft 302 kts 344°
2026-05-04 14:27 14.87765 121.07170 10442 ft 314 kts 343°
2026-05-04 14:27 14.89872 121.06537 10631 ft 323 kts 353°
2026-05-04 14:28 14.92165 121.06290 10847 ft 332 kts 359°
2026-05-04 14:28 14.94478 121.06140 11046 ft 343 kts 359°
2026-05-04 14:28 14.96926 121.05983 11235 ft 353 kts 359°
2026-05-04 14:28 14.99384 121.05820 11436 ft 363 kts 358°
2026-05-04 14:29 15.04577 121.05465 11787 ft 380 kts 358°
2026-05-04 14:29 15.09920 121.05096 12171 ft 394 kts 358°
2026-05-04 14:30 15.12705 121.04902 12449 ft 397 kts 358°
2026-05-04 14:30 15.15460 121.04711 12744 ft 400 kts 358°
2026-05-04 14:30 15.21019 121.04324 13339 ft 404 kts 358°
2026-05-04 14:31 15.21966 121.04259 13434 ft 405 kts 358°